カタログに戻る

OPS 3662

VELA 3

運用中軍事HEO
NORAD 836·PAYLOAD·🇺🇸 United States

打ち上げ Jul 17, 1964 から Cape Canaveral Space Force Station

Loading…

次のパス (今後24時間)

TLE

最新Source: Space-Track

元期: Sep 16, 2026, 11:03 UTC

1 00836U 64040A   26259.46110367  .00000214  00000-0  00000-0 0  9990
2 00836  53.1891 116.3550 5372360 273.2877   0.6138  0.23920346 11222

AllMySatでOPS 3662をリアルタイム追跡

Download on the App Store